Regional Weather Roundup
Issued by NWS

Home | Current Version | Previous Version | Graphics & Text | Print | Product List | Glossary On
Versions: 1 2 3 4 5 6 7 8 9 10 11 12 13 14 15 16 17 18 19 20 21 22 23 24 25 26 27 28 29 30 31 32 33 34 35 36 37 38 39 40 41 42 43 44 45 46 47 48 49 50
084
ASUS43 KIND 031309
RWRIN

WEATHER ROUNDUP FOR INDIANA
NATIONAL WEATHER SERVICE INDIANAPOLIS IN
900 AM EDT TUE MAY 03 2016

NOTE: "FAIR" INDICATES FEW OR NO CLOUDS BELOW 12,000 FEET WITH NO
SIGNIFICANT WEATHER AND/OR OBSTRUCTIONS TO VISIBILITY.

* - STATION DOES NOT REPORT WEATHER SUCH AS PRECIPITATION OR FOG.

+ - STATION NOT QUALITY CONTROLLED BY THE NATIONAL WEATHER SERVICE.
    USE DATA WITH CAUTION...ESPECIALLY DEWPOINT AND RELATIVE
    HUMIDITY OBSERVATIONS.

INZ001>003-010>013-019-020-031400-
NORTHWEST INDIANA

CITY           SKY/WX    TMP DP  RH WIND       PRES   REMARKS
GARY /AIRPORT/ MOSUNNY   50  45  81 W6        29.98S
KNOX *+        CLOUDY    45  34  65 CALM      29.98S
LA PORTE +     FAIR      50  38  63 NW5       29.98S
MICHIGAN CITY+ FAIR      45  45 100 CALM      29.98F
MONTICELLO +   CLOUDY    49  41  74 NW8       29.97S
RENSSELAER +   FAIR      48  41  76 NW5       29.99S
VALPARAISO     FAIR      52  38  58 N3        29.98S

$$

LMZ046-743>745-031400-
SOUTHERN LAKE MICHIGAN

STATION/POSITION TIME  TEMP    WIND        PRES    WAVE
                       AIR SEA DIR/SP/G            HT
                 (UTC) (F)     (DEG/KT/KT) (MB)    (FT)
BURNS HARBOR     1203   47     310/  3/  6 1015.6S
MICHIGAN CITY    1200   49     310/  1/  2   N/A

$$

INZ004-005-014>016-021>024-031400-
NORTH CENTRAL INDIANA

CITY           SKY/WX    TMP DP  RH WIND       PRES   REMARKS
ELKHART        FAIR      48  46  93 CALM      29.97S
GOSHEN         CLOUDY    51  46  83 W3        29.96R
LOGANSPORT +   CLOUDY    50  48  93 N5        29.97S
PERU/GRISSOM   LGT RAIN  50  50 100 N5        29.95R
ROCHESTER +    PTSUNNY   52  50  93 CALM      29.97R
SOUTH BEND     FAIR      49  39  68 NW7       29.97S
WARSAW +       LGT RAIN  50  46  87 CALM      29.96S

$$

INZ006>009-017-018-025>027-031400-
NORTHEAST INDIANA

CITY           SKY/WX    TMP DP  RH WIND       PRES   REMARKS
ANGOLA *+      CLOUDY    48  39  71 CALM      29.94F
AUBURN +       CLOUDY    50  45  81 CALM      29.96R
FORT WAYNE     LGT RAIN  51  48  89 N3        29.96S
HUNTINGTON +   DRIZZLE   48  47  96 N3        29.96R

$$

INZ028-029-035-036-043>045-051>053-031400-
WEST CENTRAL INDIANA

CITY           SKY/WX    TMP DP  RH WIND       PRES   REMARKS
CRAWFORDSVL +  CLOUDY    48  48 100 NW8       29.97R
GREENCASTLE +  CLOUDY    50  48  93 N8        29.96S
LAFAYETTE      CLOUDY    48  42  80 N9        29.98R
TERRE HAUTE    CLOUDY    50  46  86 NW6       29.98R

$$

INZ030>032-037>040-046>048-054>057-064-065-031400-
CENTRAL INDIANA

CITY           SKY/WX    TMP DP  RH WIND       PRES   REMARKS
ANDERSON       CLOUDY    50  48  93 N6        29.96  FOG
CP ATTERBURY + DRIZZLE   52  50  93 NW9       29.93S
COLUMBUS       LGT RAIN  50  50 100 NW9       29.93S FOG
FRANKFORT +    DRIZZLE   50  50 100 N6        29.98R
INDIANAPOLIS   LGT RAIN  51  48  89 NW13      29.94R
-EAGLE CREEK   LGT RAIN  51  49  92 N5        29.94R FOG
KOKOMO *+      PTSUNNY   50  46  87 N8        29.96S
MARION +       CLOUDY    49  47  95 N6        29.96S FOG
SHELBYVILLE    CLOUDY    52  47  83 NE7       29.92S
ZIONSVILLE +   DRIZZLE   47  47  97 N8        29.96R

$$

INZ033-034-041-042-049-050-058-059-031400-
EAST CENTRAL INDIANA

CITY           SKY/WX    TMP DP  RH WIND       PRES   REMARKS
MUNCIE         CLOUDY    51  46  83 NE6       29.94S HAZE

$$

INZ060-061-067>069-081>083-085>088-031400-
SOUTHWEST INDIANA

CITY           SKY/WX    TMP DP  RH WIND       PRES   REMARKS
EVANSVILLE     FAIR      55  49  80 NW8       29.99R
HUNTINGBURG *+ CLOUDY    54  48  82 NW8       29.97S
WASHINGTON +   CLOUDY    52  51  94 NW9       29.97S

$$

INZ062-063-066-070>080-084-089>092-031400-
SOUTH CENTRAL AND SOUTHEAST INDIANA

CITY           SKY/WX    TMP DP  RH WIND       PRES   REMARKS
BLOOMINGTON    CLOUDY    53  48  83 NW5       29.94S
MADISON *+     CLOUDY    54  48  82 W8        29.94S
NORTH VERNON + CLOUDY   N/A N/A N/A CALM      29.93S
SEYMOUR +      CLOUDY    55  50  82 W7        29.93S

$$





USA.gov is the U.S. government's official web portal to all federal, state and local government web resources and services.